Location: Unspecified
(0.0000°N, 0.0000°E)
Time: 11:52:06
(UTC+01:00)

Atlas Centaur 2 - Visible Passes

Search period start: 17 January 2017 00:00
Search period end: 27 January 2017 00:00
Orbit: 459 x 1314 km, 30.4° (Epoch: 16 January)

Date Brightness Start Highest point End Pass type
(mag) Time Alt. Az. Time Alt. Az. Time Alt. Az.
20 Jan 3.4 20:20:00 10° N 20:21:22 13° N 20:21:22 13° N visible
21 Jan 2.7 20:16:00 10° NNW 20:19:22 21° NNE 20:19:22 21° NNE visible
22 Jan 2.1 20:12:20 10° NW 20:16:27 32° NNE 20:17:29 28° ENE visible
23 Jan 1.6 20:08:51 10° NW 20:13:29 51° NNE 20:15:39 24° E visible
24 Jan 1.4 20:05:31 10° NW 20:10:27 80° NNE 20:13:53 14° ESE visible
25 Jan 5.1 05:20:14 10° SSE 05:21:42 11° SSE 05:23:13 10° SE visible
25 Jan 1.8 20:02:19 10° WNW 20:07:23 68° SSW 20:11:27 10° SE visible
26 Jan 4.8 05:15:43 10° S 05:18:37 14° SSE 05:21:50 10° ESE visible
26 Jan 2.7 19:59:16 10° WNW 20:04:17 46° SW 20:08:20 10° SE visible
